| time (UTC) | temp F | wind direction | speed knots | gust knots | rain 1hr in | rain 24hr in | rain mn in | humidity % | barometer mb |
| 20260507155540 | 61 | 319 | 2.6 | 3.5 | 0.00 | 0.02 | 0.02 | 52 | 1016.2 |
| 20260507155037 | 61 | 283 | 0.9 | 3.5 | 0.00 | 0.02 | 0.02 | 53 | 1016.2 |
| 20260507154534 | 60 | 116 | 0.0 | 1.7 | 0.00 | 0.02 | 0.02 | 56 | 1016.3 |
| 20260507154031 | 60 | 219 | 0.9 | 3.5 | 0.00 | 0.02 | 0.02 | 54 | 1016.4 |
| 20260507153528 | 60 | 290 | 1.7 | 2.6 | 0.00 | 0.02 | 0.02 | 55 | 1016.2 |
| 20260507153024 | 60 | 201 | 0.0 | 6.1 | 0.00 | 0.02 | 0.02 | 55 | 1016.4 |
| 20260507152520 | 59 | 166 | 1.7 | 3.5 | 0.00 | 0.02 | 0.02 | 57 | 1016.2 |
| 20260507152017 | 59 | 292 | 0.9 | 3.5 | 0.00 | 0.02 | 0.02 | 57 | 1016.5 |
| 20260507151513 | 58 | 111 | 0.9 | 3.5 | 0.00 | 0.02 | 0.02 | 58 | 1016.5 |
| 20260507151010 | 58 | 72 | 0.0 | 1.7 | 0.00 | 0.02 | 0.02 | 59 | 1016.5 |
| 20260507150507 | 58 | 358 | 0.9 | 0.9 | 0.00 | 0.02 | 0.02 | 61 | 1016.7 |
| 20260507150003 | 58 | 21 | 0.9 | 2.6 | 0.00 | 0.02 | 0.02 | 60 | 1016.9 |
| 20260507145458 | 57 | 63 | 1.7 | 1.7 | 0.00 | 0.02 | 0.02 | 60 | 1016.7 |
| 20260507144956 | 57 | 347 | 1.7 | 2.6 | 0.00 | 0.02 | 0.02 | 61 | 1016.9 |
| 20260507144452 | 57 | 161 | 0.9 | 1.7 | 0.00 | 0.02 | 0.02 | 60 | 1017.0 |
| 20260507143949 | 57 | 215 | 1.7 | 3.5 | 0.00 | 0.02 | 0.02 | 60 | 1016.9 |
| 20260507143447 | 57 | 244 | 1.7 | 2.6 | 0.00 | 0.02 | 0.02 | 61 | 1016.8 |
| 20260507142943 | 56 | 309 | 0.0 | 1.7 | 0.05 | 0.02 | 0.02 | 61 | 1016.8 |
| 20260507142439 | 56 | 175 | 0.0 | 1.7 | 0.05 | 0.02 | 0.02 | 61 | 1016.8 |
| 20260507141937 | 56 | 213 | 0.0 | 0.9 | 0.00 | 0.01 | 0.01 | 62 | 1016.8 |
| 20260507141432 | 55 | 269 | 0.0 | 0.9 | 0.00 | 0.01 | 0.01 | 63 | 1016.8 |
| 20260507140930 | 55 | 230 | 0.0 | 0.9 | 0.00 | 0.01 | 0.01 | 62 | 1017.0 |
| 20260507140426 | 55 | 333 | 1.7 | 1.7 | 0.00 | 0.01 | 0.01 | 62 | 1016.9 |
| 20260507135924 | 55 | 237 | 0.0 | 0.9 | 0.00 | 0.01 | 0.01 | 64 | 1017.1 |
| 20260507135420 | 54 | 193 | 0.0 | 1.7 | 0.00 | 0.01 | 0.01 | 64 | 1017.0 |
| 20260507134918 | 54 | 116 | 0.0 | 0.9 | 0.00 | 0.01 | 0.01 | 65 | 1017.1 |
| 20260507134414 | 54 | 232 | 0.0 | 1.7 | 0.00 | 0.01 | 0.01 | 65 | 1017.0 |
| 20260507133910 | 54 | 212 | 0.0 | 1.7 | 0.00 | 0.01 | 0.01 | 65 | 1017.1 |
| 20260507133406 | 54 | 209 | 0.0 | 0.9 | 0.00 | 0.01 | 0.01 | 65 | 1017.2 |
| 20260507132905 | 53 | 177 | 0.0 | 0.0 | 0.00 | 0.01 | 0.01 | 67 | 1016.9 |
| 20260507132401 | 53 | 256 | 0.9 | 0.9 | 0.00 | 0.01 | 0.01 | 66 | 1016.9 |
| 20260507131858 | 53 | 207 | 0.0 | 1.7 | 0.00 | 0.01 | 0.01 | 66 | 1017.1 |
| 20260507131355 | 53 | 213 | 0.0 | 0.0 | 0.00 | 0.01 | 0.01 | 68 | 1017.2 |
| 20260507130851 | 52 | 137 | 0.0 | 0.9 | 0.00 | 0.01 | 0.01 | 68 | 1017.2 |
| 20260507130349 | 51 | 230 | 0.0 | 0.9 | 0.00 | 0.01 | 0.01 | 69 | 1017.4 |
| 20260507125848 | 50 | 186 | 0.0 | 0.9 | 0.00 | 0.01 | 0.01 | 70 | 1017.4 |
| 20260507125344 | 50 | 119 | 0.0 | 0.9 | 0.00 | 0.01 | 0.01 | 70 | 1017.5 |
| 20260507124842 | 50 | 213 | 0.0 | 0.9 | 0.00 | 0.01 | 0.01 | 70 | 1017.3 |
| 20260507124338 | 49 | 218 | 0.0 | 0.0 | 0.00 | 0.01 | 0.01 | 70 | 1017.2 |
| 20260507123837 | 49 | 205 | 0.0 | 0.0 | 0.00 | 0.01 | 0.01 | 71 | 1017.2 |
| 20260507123334 | 48 | 221 | 0.0 | 0.0 | 0.00 | 0.01 | 0.01 | 71 | 1017.2 |
| 20260507122830 | 48 | 206 | 0.0 | 0.0 | 0.00 | 0.01 | 0.01 | 72 | 1017.4 |
| 20260507122325 | 47 | 212 | 0.0 | 0.0 | 0.00 | 0.01 | 0.01 | 72 | 1017.4 |
| 20260507121823 | 47 | 194 | 0.0 | 0.9 | 0.00 | 0.01 | 0.01 | 72 | 1017.3 |
| 20260507121317 | 47 | 204 | 0.9 | 0.9 | 0.00 | 0.01 | 0.01 | 72 | 1017.4 |
| 20260507120814 | 46 | 222 | 0.0 | 1.7 | 0.00 | 0.01 | 0.01 | 72 | 1017.3 |
| 20260507120310 | 46 | 220 | 0.0 | 0.0 | 0.00 | 0.01 | 0.01 | 72 | 1017.3 |
| 20260507115807 | 46 | 212 | 0.0 | 0.0 | 0.00 | 0.01 | 0.01 | 72 | 1017.3 |
| 20260507115306 | 46 | 218 | 0.0 | 0.0 | 0.00 | 0.01 | 0.01 | 71 | 1017.1 |
| 20260507114758 | 46 | 194 | 0.0 | 0.0 | 0.00 | 0.01 | 0.01 | 71 | 1017.1 |
| 20260507114256 | 46 | 198 | 0.0 | 0.0 | 0.00 | 0.01 | 0.01 | 71 | 1017.0 |
| 20260507113753 | 46 | 212 | 0.0 | 0.0 | 0.00 | 0.01 | 0.01 | 71 | 1017.1 |
| 20260507113250 | 46 | 200 | 0.0 | 0.0 | 0.00 | 0.01 | 0.01 | 70 | 1017.1 |
| 20260507112748 | 46 | 221 | 0.0 | 0.0 | 0.00 | 0.01 | 0.01 | 70 | 1017.1 |
| 20260507112244 | 46 | 231 | 0.0 | 0.0 | 0.00 | 0.01 | 0.01 | 69 | 1017.1 |
| 20260507111742 | 46 | 217 | 0.0 | 0.0 | 0.00 | 0.01 | 0.01 | 69 | 1017.1 |
| 20260507111238 | 46 | 216 | 0.0 | 0.0 | 0.00 | 0.01 | 0.01 | 68 | 1017.0 |
| 20260507110734 | 46 | 224 | 0.0 | 0.0 | 0.00 | 0.01 | 0.01 | 68 | 1016.9 |
| 20260507110231 | 46 | 215 | 0.0 | 0.0 | 0.00 | 0.01 | 0.01 | 68 | 1017.1 |
| 20260507105728 | 46 | 182 | 0.9 | 0.9 | 0.00 | 0.01 | 0.01 | 68 | 1017.1 |
| 20260507105224 | 46 | 211 | 0.0 | 0.0 | 0.00 | 0.01 | 0.01 | 68 | 1017.0 |
| 20260507104722 | 46 | 218 | 0.0 | 0.0 | 0.00 | 0.01 | 0.01 | 68 | 1017.1 |
| 20260507104218 | 46 | 217 | 0.0 | 0.0 | 0.00 | 0.01 | 0.01 | 68 | 1016.9 |
| 20260507103714 | 46 | 219 | 0.0 | 0.0 | 0.00 | 0.01 | 0.01 | 67 | 1017.0 |
| 20260507103211 | 46 | 230 | 0.0 | 0.0 | 0.00 | 0.01 | 0.01 | 67 | 1017.1 |
| 20260507102707 | 45 | 218 | 0.0 | 0.0 | 0.00 | 0.01 | 0.01 | 67 | 1017.0 |
| 20260507102204 | 45 | 210 | 0.0 | 0.0 | 0.00 | 0.01 | 0.01 | 67 | 1016.9 |
| 20260507101700 | 45 | 219 | 0.0 | 0.0 | 0.00 | 0.01 | 0.01 | 68 | 1017.2 |
| 20260507101155 | 45 | 215 | 0.0 | 0.0 | 0.00 | 0.01 | 0.01 | 68 | 1016.9 |
| 20260507100653 | 45 | 214 | 0.0 | 0.0 | 0.00 | 0.01 | 0.01 | 67 | 1017.2 |
| 20260507100151 | 45 | 222 | 0.0 | 0.0 | 0.00 | 0.01 | 0.01 | 68 | 1017.0 |
| 20260507095649 | 45 | 217 | 0.0 | 0.0 | 0.00 | 0.01 | 0.01 | 68 | 1017.0 |
| 20260507095145 | 45 | 223 | 0.0 | 0.0 | 0.00 | 0.01 | 0.01 | 67 | 1017.0 |
| 20260507094641 | 44 | 239 | 0.0 | 0.0 | 0.00 | 0.01 | 0.01 | 68 | 1017.1 |
| 20260507094138 | 44 | 226 | 0.0 | 0.0 | 0.00 | 0.01 | 0.01 | 69 | 1017.3 |
| 20260507093636 | 44 | 214 | 0.0 | 0.0 | 0.00 | 0.01 | 0.01 | 69 | 1017.3 |
| 20260507093134 | 44 | 222 | 0.0 | 0.0 | 0.00 | 0.01 | 0.01 | 69 | 1017.3 |
| 20260507092631 | 44 | 231 | 0.0 | 0.0 | 0.00 | 0.01 | 0.01 | 70 | 1017.3 |
| 20260507092127 | 44 | 223 | 0.0 | 0.0 | 0.00 | 0.01 | 0.01 | 69 | 1017.2 |
| 20260507091624 | 45 | 228 | 0.0 | 0.0 | 0.00 | 0.01 | 0.01 | 70 | 1017.4 |
| 20260507091120 | 45 | 216 | 0.0 | 0.0 | 0.00 | 0.01 | 0.01 | 69 | 1017.3 |
| 20260507090616 | 45 | 213 | 0.0 | 0.0 | 0.00 | 0.01 | 0.01 | 68 | 1017.4 |
| 20260507090113 | 45 | 214 | 0.0 | 0.0 | 0.00 | 0.01 | 0.01 | 68 | 1017.4 |
| 20260507085610 | 45 | 203 | 0.0 | 0.0 | 0.00 | 0.01 | 0.01 | 69 | 1017.3 |
| 20260507085107 | 44 | 217 | 0.0 | 0.0 | 0.00 | 0.01 | 0.01 | 69 | 1017.5 |
| 20260507084603 | 44 | 222 | 0.0 | 0.0 | 0.00 | 0.01 | 0.01 | 70 | 1017.5 |
| 20260507084101 | 44 | 224 | 0.0 | 0.0 | 0.00 | 0.01 | 0.01 | 71 | 1017.3 |
| 20260507083556 | 44 | 224 | 0.0 | 0.0 | 0.00 | 0.01 | 0.01 | 71 | 1017.5 |
| 20260507083054 | 44 | 224 | 0.0 | 0.0 | 0.00 | 0.01 | 0.01 | 72 | 1017.5 |
| 20260507082549 | 44 | 223 | 0.0 | 0.0 | 0.00 | 0.01 | 0.01 | 72 | 1017.3 |
| 20260507082046 | 44 | 222 | 0.0 | 0.0 | 0.00 | 0.01 | 0.01 | 71 | 1017.5 |
| 20260507081542 | 44 | 224 | 0.0 | 0.0 | 0.00 | 0.01 | 0.01 | 70 | 1017.5 |
| 20260507081040 | 44 | 224 | 0.0 | 0.0 | 0.00 | 0.01 | 0.01 | 71 | 1017.4 |
| 20260507080535 | 44 | 224 | 0.0 | 0.0 | 0.00 | 0.01 | 0.01 | 72 | 1017.5 |
| 20260507080032 | 44 | 226 | 0.0 | 0.0 | 0.00 | 0.01 | 0.01 | 71 | 1017.4 |
| 20260507075527 | 44 | 227 | 0.0 | 0.0 | 0.00 | 0.01 | 0.01 | 72 | 1017.3 |
| 20260507075024 | 44 | 223 | 0.0 | 0.0 | 0.00 | 0.01 | 0.01 | 72 | 1017.3 |
| 20260507074521 | 45 | 224 | 0.0 | 0.0 | 0.00 | 0.01 | 0.01 | 72 | 1017.4 |
| 20260507074020 | 45 | 228 | 0.0 | 0.0 | 0.00 | 0.01 | 0.01 | 71 | 1017.5 |
| 20260507073515 | 45 | 229 | 0.0 | 0.0 | 0.00 | 0.01 | 0.01 | 72 | 1017.5 |
| 20260507073012 | 45 | 229 | 0.0 | 0.0 | 0.00 | 0.01 | 0.01 | 70 | 1017.5 |
| 20260507072509 | 46 | 227 | 0.0 | 0.0 | 0.00 | 0.01 | 0.01 | 69 | 1017.5 |
| 20260507072006 | 46 | 225 | 0.0 | 0.0 | 0.00 | 0.01 | 0.01 | 69 | 1017.5 |
| 20260507071504 | 46 | 220 | 0.0 | 0.0 | 0.00 | 0.01 | 0.01 | 67 | 1017.6 |
| 20260507071000 | 46 | 222 | 0.0 | 0.0 | 0.00 | 0.01 | 0.01 | 66 | 1017.8 |
| 20260507070457 | 47 | 225 | 0.0 | 0.0 | 0.07 | 0.01 | 0.01 | 65 | 1017.9 |
| 20260507065954 | 47 | 225 | 0.0 | 0.0 | 0.07 | 0.01 | 0.01 | 64 | 1017.8 |
| 20260507065451 | 47 | 225 | 0.0 | 0.0 | 0.00 | 0.00 | 0.00 | 63 | 1017.8 |
| 20260507064948 | 47 | 223 | 0.0 | 0.0 | 0.00 | 0.00 | 0.00 | 63 | 1018.0 |
| 20260507064446 | 48 | 228 | 0.0 | 0.0 | 0.00 | 0.00 | 0.00 | 61 | 1017.9 |
| 20260507063943 | 48 | 228 | 0.0 | 0.0 | 0.00 | 0.00 | 0.00 | 61 | 1017.9 |
| 20260507063440 | 48 | 226 | 0.0 | 0.0 | 0.00 | 0.00 | 0.00 | 60 | 1018.1 |
| 20260507062937 | 48 | 230 | 0.0 | 0.0 | 0.00 | 0.00 | 0.00 | 60 | 1018.0 |
| 20260507062435 | 48 | 232 | 0.0 | 0.0 | 0.00 | 0.00 | 0.00 | 60 | 1018.2 |
| 20260507061932 | 48 | 217 | 0.0 | 0.0 | 0.00 | 0.00 | 0.00 | 61 | 1017.9 |
| 20260507061430 | 48 | 217 | 0.0 | 0.0 | 0.00 | 0.00 | 0.00 | 61 | 1018.0 |
| 20260507060928 | 48 | 216 | 0.0 | 0.0 | 0.00 | 0.00 | 0.00 | 61 | 1017.9 |
| 20260507060424 | 48 | 215 | 0.0 | 0.0 | 0.00 | 0.00 | 0.00 | 60 | 1018.0 |
| 20260507055921 | 48 | 227 | 0.0 | 0.0 | 0.00 | 0.00 | 0.00 | 61 | 1018.1 |
| 20260507055417 | 48 | 227 | 0.0 | 0.0 | 0.00 | 0.00 | 0.00 | 60 | 1017.9 |
| 20260507054914 | 48 | 221 | 0.0 | 0.0 | 0.00 | 0.00 | 0.00 | 60 | 1018.0 |
| 20260507054409 | 48 | 225 | 0.0 | 0.0 | 0.00 | 0.00 | 0.00 | 60 | 1018.1 |
| 20260507053907 | 48 | 225 | 0.0 | 0.0 | 0.00 | 0.00 | 0.00 | 59 | 1018.2 |
| 20260507053405 | 48 | 219 | 0.0 | 0.0 | 0.00 | 0.00 | 0.00 | 59 | 1018.1 |
| 20260507052903 | 48 | 225 | 0.0 | 0.0 | 0.00 | 0.00 | 0.00 | 59 | 1018.1 |
| 20260507052400 | 48 | 227 | 0.0 | 0.0 | 0.00 | 0.00 | 0.00 | 59 | 1018.2 |
| 20260507051857 | 48 | 229 | 0.0 | 0.0 | 0.00 | 0.00 | 0.00 | 59 | 1018.2 |
| 20260507051355 | 48 | 232 | 0.0 | 0.0 | 0.00 | 0.00 | 0.00 | 59 | 1018.0 |
| 20260507050851 | 48 | 233 | 0.0 | 0.0 | 0.00 | 0.00 | 0.00 | 59 | 1018.1 |
| 20260507050348 | 48 | 225 | 0.0 | 0.0 | 0.00 | 0.00 | 0.00 | 59 | 1018.1 |
| 20260507045845 | 48 | 229 | 0.0 | 0.0 | 0.00 | 0.06 | 0.06 | 59 | 1018.1 |
| 20260507045341 | 47 | 230 | 0.0 | 0.0 | 0.00 | 0.06 | 0.06 | 59 | 1018.2 |
| 20260507044838 | 47 | 231 | 0.0 | 0.0 | 0.00 | 0.06 | 0.06 | 58 | 1018.3 |
| 20260507044335 | 47 | 234 | 0.0 | 0.0 | 0.00 | 0.06 | 0.06 | 58 | 1018.1 |
| 20260507043831 | 47 | 232 | 0.0 | 0.0 | 0.00 | 0.06 | 0.06 | 58 | 1018.2 |
| 20260507043327 | 47 | 232 | 0.0 | 0.0 | 0.00 | 0.06 | 0.06 | 59 | 1018.1 |
| 20260507042824 | 47 | 230 | 0.0 | 0.0 | 0.00 | 0.06 | 0.06 | 59 | 1018.1 |
| 20260507042320 | 47 | 230 | 0.0 | 0.0 | 0.00 | 0.06 | 0.06 | 60 | 1018.0 |
| 20260507041817 | 47 | 229 | 0.0 | 0.0 | 0.00 | 0.06 | 0.06 | 61 | 1018.1 |
| 20260507041313 | 47 | 224 | 0.0 | 0.0 | 0.00 | 0.06 | 0.06 | 60 | 1018.0 |
| 20260507040811 | 47 | 219 | 0.0 | 0.0 | 0.00 | 0.06 | 0.06 | 61 | 1018.3 |
| 20260507040307 | 47 | 215 | 0.0 | 0.0 | 0.00 | 0.06 | 0.06 | 61 | 1018.2 |
| 20260507035802 | 47 | 218 | 0.0 | 0.0 | 0.00 | 0.06 | 0.06 | 62 | 1018.2 |
| 20260507035258 | 47 | 229 | 0.0 | 0.0 | 0.00 | 0.06 | 0.06 | 61 | 1018.6 |
| 20260507034756 | 47 | 229 | 0.0 | 0.0 | 0.00 | 0.06 | 0.06 | 61 | 1018.4 |
| 20260507034252 | 47 | 230 | 0.0 | 0.0 | 0.00 | 0.06 | 0.06 | 61 | 1018.3 |
| 20260507033751 | 47 | 230 | 0.0 | 0.0 | 0.00 | 0.06 | 0.06 | 61 | 1018.3 |
| 20260507033248 | 47 | 228 | 0.0 | 0.0 | 0.00 | 0.06 | 0.06 | 61 | 1018.3 |
| 20260507032745 | 48 | 224 | 0.0 | 0.0 | 0.00 | 0.06 | 0.06 | 61 | 1018.2 |
| 20260507032241 | 48 | 224 | 0.0 | 0.0 | 0.00 | 0.06 | 0.06 | 61 | 1018.2 |
| 20260507031738 | 48 | 228 | 0.0 | 0.0 | 0.00 | 0.06 | 0.06 | 60 | 1018.0 |
| 20260507031235 | 48 | 226 | 0.0 | 0.0 | 0.00 | 0.06 | 0.06 | 59 | 1018.2 |
| 20260507030731 | 48 | 225 | 0.0 | 0.0 | 0.00 | 0.06 | 0.06 | 59 | 1018.3 |
| 20260507030229 | 48 | 225 | 0.0 | 0.0 | 0.00 | 0.06 | 0.06 | 58 | 1018.2 |
| 20260507025726 | 49 | 225 | 0.0 | 0.0 | 0.00 | 0.06 | 0.06 | 57 | 1018.3 |
| 20260507025223 | 49 | 225 | 0.0 | 0.0 | 0.00 | 0.06 | 0.06 | 56 | 1018.4 |
| 20260507024721 | 49 | 225 | 0.0 | 0.0 | 0.00 | 0.06 | 0.06 | 56 | 1018.2 |
| 20260507024218 | 49 | 224 | 0.0 | 0.0 | 0.00 | 0.06 | 0.06 | 55 | 1018.0 |
| 20260507023713 | 50 | 224 | 0.0 | 0.0 | 0.00 | 0.06 | 0.06 | 55 | 1018.2 |
| 20260507023211 | 50 | 220 | 0.0 | 0.0 | 0.00 | 0.06 | 0.06 | 54 | 1018.1 |
| 20260507022708 | 50 | 220 | 0.0 | 0.0 | 0.00 | 0.06 | 0.06 | 53 | 1018.0 |
| 20260507022204 | 50 | 219 | 0.0 | 0.0 | 0.00 | 0.06 | 0.06 | 53 | 1018.0 |
| 20260507021700 | 51 | 219 | 0.0 | 0.0 | 0.00 | 0.06 | 0.06 | 52 | 1017.8 |
| 20260507021155 | 51 | 219 | 0.0 | 0.0 | 0.00 | 0.06 | 0.06 | 51 | 1017.9 |
| 20260507020654 | 51 | 215 | 0.0 | 0.0 | 0.00 | 0.06 | 0.06 | 50 | 1017.6 |
| 20260507020150 | 51 | 215 | 0.0 | 0.0 | 0.00 | 0.06 | 0.06 | 49 | 1017.8 |
| 20260507015648 | 52 | 218 | 0.0 | 0.0 | 0.00 | 0.06 | 0.06 | 48 | 1017.6 |
| 20260507015145 | 52 | 219 | 0.0 | 0.0 | 0.00 | 0.06 | 0.06 | 47 | 1017.7 |
| 20260507014642 | 52 | 217 | 0.0 | 0.0 | 0.00 | 0.06 | 0.06 | 46 | 1017.7 |
| 20260507014138 | 53 | 217 | 0.0 | 0.0 | 0.00 | 0.06 | 0.06 | 45 | 1017.7 |
| 20260507013635 | 53 | 215 | 0.0 | 0.0 | 0.00 | 0.06 | 0.06 | 46 | 1017.6 |
| 20260507013132 | 53 | 223 | 0.0 | 0.0 | 0.00 | 0.06 | 0.06 | 45 | 1017.7 |
| 20260507012629 | 53 | 229 | 0.0 | 0.0 | 0.00 | 0.06 | 0.06 | 43 | 1017.6 |
| 20260507012124 | 54 | 233 | 0.0 | 0.0 | 0.00 | 0.06 | 0.06 | 41 | 1017.5 |
| 20260507011623 | 54 | 230 | 0.0 | 0.0 | 0.00 | 0.06 | 0.06 | 40 | 1017.5 |
| 20260507011119 | 55 | 238 | 0.0 | 0.0 | 0.00 | 0.06 | 0.06 | 41 | 1017.4 |
| 20260507010614 | 55 | 226 | 0.0 | 0.0 | 0.00 | 0.06 | 0.06 | 41 | 1017.4 |
| 20260507010110 | 55 | 231 | 0.0 | 0.0 | 0.00 | 0.06 | 0.06 | 44 | 1017.5 |
| 20260507005608 | 55 | 235 | 0.0 | 0.0 | 0.00 | 0.06 | 0.06 | 43 | 1017.4 |
| 20260507005103 | 55 | 232 | 0.0 | 0.0 | 0.00 | 0.06 | 0.06 | 43 | 1017.4 |
| 20260507004601 | 56 | 230 | 0.0 | 0.0 | 0.00 | 0.06 | 0.06 | 42 | 1017.3 |
| 20260507004058 | 57 | 35 | 0.9 | 0.9 | 0.00 | 0.06 | 0.06 | 39 | 1017.5 |
| 20260507003554 | 57 | 274 | 0.0 | 0.0 | 0.07 | 0.06 | 0.06 | 42 | 1017.3 |
| 20260507003049 | 58 | 251 | 0.9 | 0.9 | 0.07 | 0.06 | 0.06 | 35 | 1017.4 |
| 20260507002546 | 58 | 13 | 0.9 | 0.9 | 0.00 | 0.05 | 0.05 | 34 | 1017.3 |
| 20260507002042 | 58 | 205 | 0.0 | 0.0 | 0.00 | 0.05 | 0.05 | 34 | 1017.3 |
| 20260507001539 | 58 | 328 | 0.9 | 1.7 | 0.00 | 0.05 | 0.05 | 34 | 1017.5 |
| 20260507001036 | 58 | 215 | 0.0 | 1.7 | 0.00 | 0.05 | 0.05 | 34 | 1017.4 |
| 20260507000532 | 58 | 337 | 0.0 | 1.7 | 0.00 | 0.05 | 0.05 | 34 | 1017.3 |
| 20260507000028 | 59 | 244 | 0.0 | 2.6 | 0.00 | 0.05 | 0.05 | 33 | 1017.3 |
| 20260506235526 | 59 | 8 | 0.9 | 0.9 | 0.00 | 0.05 | 0.05 | 34 | 1017.2 |
| 20260506235021 | 59 | 213 | 0.0 | 0.9 | 0.00 | 0.05 | 0.05 | 33 | 1017.4 |
| 20260506234519 | 59 | 256 | 0.0 | 0.0 | 0.00 | 0.05 | 0.05 | 33 | 1017.4 |
| 20260506234016 | 59 | 81 | 0.0 | 1.7 | 0.00 | 0.05 | 0.05 | 34 | 1017.3 |
| 20260506233512 | 59 | 234 | 0.0 | 0.9 | 0.00 | 0.05 | 0.05 | 33 | 1017.4 |
| 20260506233009 | 59 | 267 | 0.0 | 0.9 | 0.00 | 0.05 | 0.05 | 32 | 1017.6 |
| 20260506232505 | 59 | 234 | 0.0 | 0.9 | 0.00 | 0.05 | 0.05 | 33 | 1017.3 |
| 20260506232001 | 59 | 185 | 0.0 | 0.9 | 0.00 | 0.05 | 0.05 | 34 | 1017.4 |
| 20260506231459 | 59 | 340 | 0.9 | 1.7 | 0.00 | 0.05 | 0.05 | 34 | 1017.2 |
| 20260506230956 | 59 | 4 | 0.9 | 1.7 | 0.00 | 0.05 | 0.05 | 33 | 1017.5 |
| 20260506230452 | 59 | 31 | 3.5 | 5.2 | 0.00 | 0.05 | 0.05 | 32 | 1017.4 |
| 20260506225949 | 59 | 134 | 3.5 | 3.5 | 0.00 | 0.05 | 0.05 | 33 | 1017.3 |
| 20260506225446 | 59 | 259 | 0.0 | 1.7 | 0.00 | 0.05 | 0.05 | 34 | 1017.4 |
| 20260506224943 | 59 | 222 | 0.0 | 2.6 | 0.00 | 0.05 | 0.05 | 33 | 1017.3 |
| 20260506224440 | 59 | 246 | 0.0 | 0.9 | 0.00 | 0.05 | 0.05 | 33 | 1017.6 |
| 20260506223936 | 59 | 253 | 0.0 | 0.9 | 0.00 | 0.05 | 0.05 | 33 | 1017.4 |
| 20260506223432 | 60 | 316 | 1.7 | 3.5 | 0.00 | 0.05 | 0.05 | 32 | 1017.4 |
| 20260506222930 | 60 | 323 | 2.6 | 3.5 | 0.00 | 0.05 | 0.05 | 32 | 1017.6 |
| 20260506222426 | 60 | 275 | 0.9 | 1.7 | 0.00 | 0.05 | 0.05 | 32 | 1017.3 |
| 20260506221923 | 60 | 346 | 0.9 | 1.7 | 0.00 | 0.05 | 0.05 | 34 | 1017.5 |
| 20260506221420 | 60 | 145 | 0.9 | 1.7 | 0.00 | 0.05 | 0.05 | 34 | 1017.3 |
| 20260506220918 | 60 | 216 | 0.0 | 1.7 | 0.00 | 0.05 | 0.05 | 32 | 1017.4 |
| 20260506220413 | 60 | 223 | 0.0 | 3.5 | 0.00 | 0.05 | 0.05 | 33 | 1017.6 |
| 20260506215910 | 60 | 219 | 0.9 | 1.7 | 0.00 | 0.05 | 0.05 | 33 | 1017.5 |
| 20260506215406 | 60 | 317 | 0.9 | 1.7 | 0.00 | 0.05 | 0.05 | 32 | 1017.7 |
| 20260506214902 | 60 | 349 | 1.7 | 3.5 | 0.00 | 0.05 | 0.05 | 32 | 1017.8 |
| 20260506214359 | 61 | 332 | 0.9 | 2.6 | 0.00 | 0.05 | 0.05 | 33 | 1017.7 |
| 20260506213857 | 61 | 275 | 0.0 | 1.7 | 0.00 | 0.05 | 0.05 | 32 | 1017.7 |
| 20260506213354 | 61 | 350 | 1.7 | 1.7 | 0.00 | 0.05 | 0.05 | 33 | 1017.7 |
| 20260506212851 | 60 | 323 | 1.7 | 3.5 | 0.00 | 0.05 | 0.05 | 34 | 1017.8 |
| 20260506212347 | 60 | 265 | 0.9 | 2.6 | 0.00 | 0.05 | 0.05 | 33 | 1017.8 |
| 20260506211842 | 60 | 263 | 0.9 | 2.6 | 0.00 | 0.05 | 0.05 | 32 | 1017.8 |
| 20260506211338 | 60 | 230 | 0.0 | 1.7 | 0.00 | 0.05 | 0.05 | 32 | 1018.0 |
| 20260506210835 | 60 | 241 | 0.0 | 1.7 | 0.00 | 0.05 | 0.05 | 32 | 1017.9 |
| 20260506210332 | 60 | 11 | 2.6 | 3.5 | 0.00 | 0.05 | 0.05 | 35 | 1017.8 |
| 20260506205830 | 60 | 247 | 0.0 | 2.6 | 0.00 | 0.05 | 0.05 | 34 | 1018.1 |
| 20260506205325 | 60 | 305 | 0.9 | 2.6 | 0.00 | 0.05 | 0.05 | 33 | 1018.3 |
| 20260506204817 | 60 | 346 | 2.6 | 3.5 | 0.00 | 0.05 | 0.05 | 33 | 1018.2 |
| 20260506204315 | 60 | 236 | 0.9 | 1.7 | 0.00 | 0.05 | 0.05 | 34 | 1018.4 |
| 20260506203812 | 60 | 315 | 1.7 | 1.7 | 0.00 | 0.05 | 0.05 | 32 | 1018.6 |
| 20260506203309 | 60 | 45 | 1.7 | 1.7 | 0.05 | 0.05 | 0.05 | 34 | 1018.6 |
| 20260506202806 | 61 | 321 | 2.6 | 3.5 | 0.05 | 0.05 | 0.05 | 34 | 1018.7 |
| 20260506202306 | 60 | 221 | 0.9 | 1.7 | 0.00 | 0.04 | 0.04 | 32 | 1018.7 |
| 20260506201759 | 60 | 248 | 1.7 | 2.6 | 0.00 | 0.04 | 0.04 | 33 | 1018.6 |
| 20260506201257 | 60 | 266 | 0.9 | 2.6 | 0.00 | 0.04 | 0.04 | 33 | 1018.7 |
| 20260506200754 | 60 | 289 | 0.0 | 0.9 | 0.00 | 0.04 | 0.04 | 34 | 1018.5 |
| 20260506200249 | 60 | 15 | 1.7 | 1.7 | 0.00 | 0.04 | 0.04 | 34 | 1018.9 |
| 20260506195746 | 60 | 209 | 0.9 | 2.6 | 0.00 | 0.04 | 0.04 | 30 | 1018.8 |
| 20260506195242 | 60 | 336 | 2.6 | 2.6 | 0.00 | 0.04 | 0.04 | 33 | 1019.0 |
| 20260506194740 | 60 | 202 | 0.9 | 1.7 | 0.00 | 0.04 | 0.04 | 33 | 1018.9 |
| 20260506194236 | 60 | 270 | 0.0 | 1.7 | 0.00 | 0.04 | 0.04 | 33 | 1018.7 |
| 20260506193734 | 59 | 271 | 0.9 | 2.6 | 0.00 | 0.04 | 0.04 | 35 | 1018.9 |
| 20260506193231 | 60 | 255 | 0.9 | 3.5 | 0.00 | 0.04 | 0.04 | 33 | 1019.0 |
| 20260506192727 | 59 | 272 | 0.9 | 2.6 | 0.00 | 0.04 | 0.04 | 33 | 1018.9 |
| 20260506192224 | 59 | 301 | 1.7 | 1.7 | 0.00 | 0.04 | 0.04 | 33 | 1018.9 |
| 20260506191721 | 59 | 258 | 0.0 | 2.6 | 0.00 | 0.04 | 0.04 | 31 | 1019.1 |
| 20260506191217 | 59 | 6 | 1.7 | 2.6 | 0.00 | 0.04 | 0.04 | 32 | 1019.0 |
| 20260506190715 | 59 | 223 | 2.6 | 5.2 | 0.00 | 0.04 | 0.04 | 32 | 1019.0 |
| 20260506190211 | 59 | 223 | 0.0 | 6.1 | 0.00 | 0.04 | 0.04 | 34 | 1019.0 |
| 20260506185708 | 59 | 6 | 1.7 | 2.6 | 0.00 | 0.04 | 0.04 | 34 | 1019.1 |
| 20260506185204 | 59 | 210 | 1.7 | 2.6 | 0.00 | 0.04 | 0.04 | 33 | 1019.1 |
| 20260506184702 | 59 | 357 | 2.6 | 2.6 | 0.00 | 0.04 | 0.04 | 33 | 1019.2 |
| 20260506184159 | 58 | 226 | 0.0 | 1.7 | 0.00 | 0.04 | 0.04 | 36 | 1019.1 |
| 20260506183656 | 58 | 270 | 0.0 | 2.6 | 0.00 | 0.04 | 0.04 | 32 | 1019.3 |
| 20260506183151 | 57 | 43 | 3.5 | 6.1 | 0.00 | 0.04 | 0.04 | 34 | 1019.2 |
| 20260506182649 | 57 | 263 | 0.9 | 1.7 | 0.00 | 0.04 | 0.04 | 36 | 1019.4 |
| 20260506182145 | 57 | 9 | 2.6 | 3.5 | 0.00 | 0.04 | 0.04 | 34 | 1019.4 |
| 20260506181643 | 56 | 222 | 0.0 | 1.7 | 0.00 | 0.04 | 0.04 | 36 | 1019.5 |
| 20260506181140 | 56 | 225 | 0.9 | 1.7 | 0.00 | 0.04 | 0.04 | 38 | 1019.5 |
| 20260506180638 | 55 | 232 | 0.0 | 0.9 | 0.00 | 0.04 | 0.04 | 40 | 1019.3 |
| 20260506180134 | 55 | 327 | 0.9 | 1.7 | 0.00 | 0.04 | 0.04 | 37 | 1019.6 |
| 20260506175631 | 55 | 232 | 0.0 | 3.5 | 0.00 | 0.04 | 0.04 | 39 | 1019.5 |
| 20260506175126 | 55 | 323 | 1.7 | 3.5 | 0.00 | 0.04 | 0.04 | 37 | 1019.6 |
| 20260506174625 | 55 | 222 | 0.9 | 2.6 | 0.00 | 0.04 | 0.04 | 38 | 1019.5 |
| 20260506174121 | 55 | 297 | 0.9 | 3.5 | 0.00 | 0.04 | 0.04 | 36 | 1019.6 |
| 20260506173619 | 56 | 241 | 0.9 | 1.7 | 0.00 | 0.04 | 0.04 | 38 | 1019.7 |
| 20260506173115 | 56 | 297 | 0.9 | 0.9 | 0.00 | 0.04 | 0.04 | 38 | 1019.8 |
| 20260506172613 | 56 | 30 | 0.9 | 2.6 | 0.00 | 0.04 | 0.04 | 38 | 1019.3 |
| 20260506172109 | 55 | 162 | 0.0 | 1.7 | 0.00 | 0.04 | 0.04 | 38 | 1019.5 |
| 20260506171607 | 55 | 211 | 2.6 | 2.6 | 0.00 | 0.04 | 0.04 | 38 | 1019.4 |
| 20260506171104 | 56 | 345 | 0.9 | 1.7 | 0.07 | 0.04 | 0.04 | 38 | 1019.6 |
| 20260506170601 | 57 | 305 | 2.6 | 2.6 | 0.07 | 0.04 | 0.04 | 35 | 1019.6 |
| 20260506170059 | 56 | 309 | 1.7 | 1.7 | 0.00 | 0.03 | 0.03 | 36 | 1019.6 |
| 20260506165557 | 56 | 214 | 1.7 | 3.5 | 0.00 | 0.03 | 0.03 | 37 | 1019.6 |
| 20260506165053 | 56 | 224 | 1.7 | 2.6 | 0.00 | 0.03 | 0.03 | 35 | 1019.7 |
| 20260506164550 | 56 | 4 | 2.6 | 2.6 | 0.00 | 0.03 | 0.03 | 36 | 1019.7 |
| 20260506164048 | 56 | 346 | 2.6 | 2.6 | 0.00 | 0.03 | 0.03 | 37 | 1019.5 |
| 20260506163543 | 56 | 359 | 1.7 | 2.6 | 0.00 | 0.03 | 0.03 | 41 | 1019.6 |
| 20260506163039 | 55 | 240 | 0.9 | 1.7 | 0.00 | 0.03 | 0.03 | 40 | 1019.5 |
| 20260506162536 | 55 | 225 | 0.0 | 2.6 | 0.00 | 0.03 | 0.03 | 38 | 1019.6 |
| 20260506162033 | 55 | 315 | 1.7 | 2.6 | 0.00 | 0.03 | 0.03 | 39 | 1019.6 |
| 20260506161531 | 55 | 208 | 0.0 | 2.6 | 0.00 | 0.03 | 0.03 | 42 | 1019.5 |
| 20260506161027 | 55 | 221 | 0.9 | 1.7 | 0.00 | 0.03 | 0.03 | 41 | 1019.5 |
| 20260506160525 | 55 | 256 | 0.9 | 1.7 | 0.00 | 0.03 | 0.03 | 43 | 1019.4 |
| 20260506160022 | 55 | 232 | 0.9 | 1.7 | 0.00 | 0.03 | 0.03 | 43 | 1019.3 |